Tracking 19717 objects as of 25-Jun-2019
HD Live streaming from Space Station
objects crossing your sky now

METEOR 1-10 DEB


METEOR 1-10 DEB is no longer on orbit


NORAD ID: 36930
Int'l Code: 1971-120T
Perigee: N/A
Apogee: N/A
Inclination: N/A
Period: N/A
Semi major axis: N/A
RCS: N/A
Launch date: December 29, 1971
Source: Commonwealth of Independent States (former USSR) (CIS)
Launch site: PLESETSK MISSILE AND SPACE COMPLEX (PKMTR)
Decay date: 2015-04-05

Note: This is SATELLITE DEBRIS
aabbcc
Your satellite tracking list
Your tracking list is empty




NASA's NSSDC Master Catalog

Two Line Element Set (TLE):
1 36930U 71120T   15086.74055237  .00956627  00000-0  14430-1 0  9993
2 36930 081.1507 286.1560 0027775 335.0680 024.9724 15.54263039263294
Source of the keplerian elements: AFSPC